Location: 22
(39.7117°N, 89.5929°W)
Time: 11:40:16
(UTC-05:00)

ISS - Visible Passes

Search period start: 26 September 2021 00:00
Search period end: 06 October 2021 00:00
Orbit: 417 x 423 km, 51.6° (Epoch: 26 September)

Date Brightness Start Highest point End Pass type
(mag) Time Alt. Az. Time Alt. Az. Time Alt. Az.
26 Sep -1.1 20:16:57 10° NNW 20:18:09 11° N 20:19:11 10° NNE visible
27 Sep -1.1 19:29:39 10° NNW 19:30:37 11° N 19:31:35 10° NNE visible
27 Sep -0.8 21:05:59 10° NNW 21:06:40 13° NNW 21:06:40 13° NNW visible
28 Sep -1.5 20:19:02 10° NNW 20:21:06 15° NNE 20:21:16 15° NNE visible
29 Sep -1.3 19:32:07 10° NNW 19:33:44 13° NNE 19:35:21 10° NE visible
29 Sep -0.8 21:08:09 10° NW 21:08:56 15° NNW 21:08:56 15° NNW visible
30 Sep -2.1 20:21:16 10° NNW 20:23:42 25° NNE 20:23:42 25° NNE visible
01 Oct -1.9 19:34:27 10° NNW 19:36:58 19° NNE 19:38:35 14° ENE visible
01 Oct -0.7 21:10:46 10° NW 21:11:35 16° NW 21:11:35 16° NW visible
02 Oct -3.1 20:23:51 10° NW 20:26:36 50° NNW 20:26:36 50° NNW visible
03 Oct -3.0 19:37:04 10° NW 19:40:15 38° NNE 19:41:44 24° E visible
03 Oct -0.5 21:14:12 10° WNW 21:14:45 13° W 21:14:45 13° W visible
04 Oct -2.6 20:27:04 10° WNW 20:30:04 40° SW 20:30:04 40° SW visible
05 Oct -3.6 19:40:11 10° NW 19:43:32 73° SW 19:45:33 22° SE visible
